RH
40 36 33 26 22 23 28 36 42 47 46 44 44 49 56 57 60 61 65 78 85 73 73 72 73 78 81 92 65 45 66 59 78 60 53 52 56 48 46 41 35 33 33 28 27 26 25
35 39 26 19 18 22 24 29 37 42 47 47 48 49 51 56 63 57 77 82 97 89 79 73 71 72 82 93 58 43 43 76 75 57 47 55 51 46 37 34 33 31 30 28 26 25 26
24 34 38 26 16 21 23 25 31 34 41 44 44 44 49 55 65 55 67 79 90 88 95 89 84 83 92 56 52 45 43 49 70 58 40 56 47 36 33 29 28 29 30 27 26 24 26
17 25 32 36 36 21 20 22 27 32 33 36 39 39 43 50 57 58 55 58 66 87 95 92 98 94 81 59 47 44 45 52 56 47 44 53 49 39 28 28 27 32 33 35 28 27 28
16 17 23 28 33 35 32 19 23 28 31 34 36 37 40 47 51 56 53 52 52 54 63 78 65 70 52 54 49 42 43 44 45 44 45 47 36 32 26 37 40 37 40 32 28 30 31
16 16 17 19 22 26 35 36 18 24 28 31 34 37 36 42 48 51 55 57 58 61 64 62 62 54 46 53 46 40 43 48 51 45 38 34 33 40 43 49 54 38 30 30 29 30 34
15 16 15 15 15 17 22 34 28 18 22 26 31 33 35 36 44 48 49 58 64 59 64 56 56 53 46 46 44 42 42 47 40 32 43 35 54 49 31 29 29 31 24 26 35 32 29
15 15 15 15 14 14 16 27 36 17 18 20 24 30 34 36 36 39 43 45 62 54 58 48 46 47 48 45 43 43 42 40 34 44 36 49 44 43 39 33 30 29 24 26 31 30 26
15 14 14 14 14 15 15 21 36 26 18 25 24 24 31 33 33 35 39 49 44 46 52 52 47 43 43 40 40 39 39 38 35 35 36 52 46 41 33 39 32 40 26 28 26 31 29
16 14 14 14 13 14 14 18 33 27 19 27 26 24 26 31 37 38 40 40 41 37 70 39 38 35 35 32 36 36 37 35 42 46 50 50 48 34 38 46 39 28 42 34 36 28 32
17 14 13 13 12 13 14 17 28 25 25 28 29 29 30 30 48 42 37 34 34 40 66 33 37 34 35 33 32 36 38 37 44 50 39 47 52 44 41 45 47 35 42 43 41 44 35
19 16 14 12 12 12 14 17 27 32 26 29 29 30 36 33 32 31 30 32 40 68 58 47 39 36 32 33 33 31 35 36 41 51 57 58 52 54 47 46 44 42 53 61 61 53 53
19 16 14 12 13 15 17 17 23 32 33 27 30 36 34 41 36 36 29 41 76 68 37 36 43 39 38 38 34 34 37 43 45 50 63 46 55 55 52 40 45 42 49 68 49 63 52
20 17 14 12 13 19 21 23 20 30 37 34 24 37 28 36 40 35 36 49 60 43 49 44 44 35 33 31 33 35 35 41 41 49 65 58 52 56 59 52 41 53 38 62 33 56 56
20 18 15 12 13 23 26 28 25 24 34 36 30 30 38 38 40 50 47 83 60 58 59 60 42 32 35 30 33 38 44 43 41 40 40 52 62 59 58 54 44 40 52 42 58 50 45
19 17 15 13 13 26 29 27 29 23 28 42 42 38 36 37 46 55 65 73 63 55 49 49 41 30 32 30 31 33 45 43 41 34 33 44 59 58 59 53 48 37 36 41 61 25 29
18 17 15 12 14 26 29 26 25 27 23 36 45 38 44 38 42 37 78 62 51 42 44 43 44 36 32 31 29 38 42 48 49 42 34 29 39 54 56 58 51 52 48 50 41 40 29
19 18 15 13 17 25 26 24 22 24 23 31 39 49 43 36 40 69 69 62 49 43 40 41 39 36 33 34 39 43 46 55 52 48 33 34 49 72 40 48 46 44 38 43 48 27 45
20 18 18 18 18 26 26 24 21 21 23 28 36 38 37 26 40 61 55 45 43 44 40 42 35 37 31 31 33 47 51 53 51 45 35 32 32 51 35 39 40 50 53 40 45 53 48
21 18 18 23 26 23 27 27 23 19 21 28 30 48 33 34 40 44 38 40 34 37 37 37 34 29 28 28 35 48 48 53 52 46 45 38 40 24 34 25 41 38 49 52 45 70 45
23 21 20 22 27 27 25 27 24 20 20 25 30 54 52 49 56 48 38 34 36 36 33 34 28 29 27 24 26 36 46 46 48 51 46 35 21 41 39 35 41 33 32 56 56 47 38
21 21 22 25 26 30 30 27 25 20 19 24 27 39 58 55 55 51 55 44 44 41 43 40 34 33 33 25 22 25 33 38 32 52 45 52 30 50 37 53 43 41 39 42 54 50 45
23 24 30 33 32 32 32 30 26 21 19 25 30 36 48 62 56 54 58 46 46 44 44 44 43 48 44 42 46 47 41 36 34 42 50 47 55 66 56 70 67 65 68 51 43 47 39
39 34 35 38 37 35 33 30 25 22 20 20 27 36 45 47 61 56 53 51 50 48 52 47 46 47 48 49 50 53 54 55 51 40 46 57 60 70 77 65 73 43 48 54 46 44 44
54 58 53 51 43 38 34 29 24 23 21 19 21 32 43 54 59 55 56 55 57 56 56 54 51 48 49 52 67 68 76 66 68 68 52 55 64 67 71 86 65 46 52 56 59 53 54
69 65 68 58 46 40 32 27 25 23 21 18 21 28 41 52 47 53 57 59 69 71 70 62 60 58 55 72 73 60 60 65 76 75 68 68 65 64 88 86 76 48 44 37 44 67 65
80 73 75 66 46 32 32 28 23 22 21 19 25 34 43 58 49 60 64 65 58 67 75 69 63 62 61 82 79 85 76 65 74 82 88 80 78 77 83 93 80 60 45 45 62 59 68
89 85 77 72 42 29 31 29 25 23 23 22 30 36 45 59 50 65 68 65 69 66 74 66 70 73 81 81 84 84 88 76 72 69 81 84 91 92 86 91 86 53 49 58 65 74 67
89 86 80 75 50 35 33 35 31 28 27 24 24 34 54 54 52 64 79 77 72 74 69 67 69 71 66 83 87 87 87 88 80 80 72 75 70 77 74 73 68 66 65 65 65 66 75
Wind_Speed
20 18 15 11 6 3 4 4 5 6 8 12 14 15 15 17 17 20 20 4 2 4 5 8 11 12 14 8 6 2 7 17 18 14 12 11 9 7 4 5 7 2 3 3 2 2 3
20 22 18 14 9 5 3 4 4 5 6 8 10 10 11 12 14 21 25 3 5 4 6 10 12 14 13 5 4 1 3 14 15 14 13 14 8 5 2 5 7 8 3 3 2 2 2
18 20 22 18 14 8 5 4 4 4 6 7 8 9 8 8 7 13 23 16 4 8 7 11 13 16 12 10 4 4 2 10 11 12 14 16 5 2 1 3 6 12 4 3 1 1 2
18 19 20 21 18 13 9 6 4 4 4 6 7 7 8 8 6 8 9 14 15 10 3 9 6 13 6 9 6 5 5 8 11 11 12 14 4 4 2 7 5 5 5 3 1 3 1
17 19 20 20 21 19 12 7 7 5 3 4 5 5 5 5 5 5 5 4 7 7 8 3 3 5 4 10 6 5 6 7 10 12 12 10 3 2 2 5 4 6 4 3 2 5 2
16 18 19 20 20 22 20 12 6 6 5 3 3 3 6 6 6 5 5 4 5 6 4 4 4 1 2 6 4 8 8 9 7 13 10 5 3 3 3 4 5 4 4 2 3 2 2
16 17 18 19 20 21 23 19 7 5 6 4 3 3 4 8 9 8 7 6 3 0 5 1 3 1 4 6 6 6 7 13 9 6 4 2 5 3 4 3 5 5 3 3 2 1 2
16 17 19 20 21 22 23 22 11 4 4 5 4 2 3 4 8 9 7 4 7 3 6 8 5 2 6 6 6 6 11 4 4 3 4 5 4 1 3 3 4 3 3 2 1 0 2
15 16 18 20 22 24 25 25 15 3 4 5 4 3 2 1 2 3 2 4 2 6 3 6 6 0 4 7 4 6 9 2 4 3 2 6 1 1 3 4 4 2 3 3 2 1 2
13 15 17 20 22 24 26 26 19 4 2 5 4 3 6 4 3 3 2 4 5 5 3 6 2 2 2 7 4 5 4 3 4 6 4 5 4 2 4 4 1 2 0 0 5 3 3
12 14 16 18 20 23 25 26 21 5 2 5 9 4 5 7 3 4 4 4 3 2 4 5 4 2 4 2 9 2 4 3 4 3 3 1 3 4 5 1 1 3 3 3 3 4 3
12 14 16 18 20 21 24 27 23 7 3 2 9 13 3 5 7 5 3 0 2 5 2 6 4 2 2 4 2 3 2 6 6 6 6 2 2 3 2 2 2 4 5 7 5 3 2
10 13 15 17 20 22 23 26 25 12 4 3 4 12 3 2 1 2 1 2 5 6 3 5 3 4 3 4 4 3 3 5 3 5 3 5 3 3 3 4 3 5 6 3 4 4 5
11 12 14 17 19 20 23 25 25 15 10 3 2 10 7 2 2 4 5 4 8 2 2 3 3 2 3 0 2 3 3 2 4 4 4 5 4 3 5 2 5 3 4 5 6 3 4
9 12 13 15 17 19 21 23 26 21 10 5 5 12 12 9 2 3 3 5 4 1 3 6 5 3 4 2 3 4 2 3 2 1 3 5 2 2 3 2 2 3 1 3 6 2 2
8 10 12 14 17 18 20 21 22 23 11 8 1 2 10 7 8 2 4 4 4 3 1 1 3 2 2 1 1 2 3 0 1 1 1 5 5 1 2 1 4 2 4 4 3 2 4
8 10 11 13 14 17 20 21 20 21 17 6 3 1 12 7 3 5 3 2 2 3 2 2 1 1 3 2 1 1 2 2 4 4 1 2 3 2 2 4 6 2 1 4 3 4 4
6 8 12 13 13 14 16 19 21 21 18 8 2 3 13 4 5 4 2 3 6 3 4 2 0 2 2 2 3 2 1 1 3 2 1 1 4 3 1 0 0 1 3 4 4 5 1
7 8 8 11 13 13 13 15 18 20 19 10 2 3 8 6 3 2 2 1 2 5 3 4 3 2 2 3 2 2 3 2 2 1 3 2 1 3 5 4 2 3 4 3 4 3 5
8 8 9 9 10 12 13 14 15 16 16 10 3 3 5 7 6 4 3 0 1 1 1 2 2 1 2 2 4 3 2 0 2 2 3 1 2 5 6 4 4 4 5 6 5 3 5
10 9 9 10 10 10 11 13 13 14 13 9 5 1 2 2 4 3 2 1 1 1 1 0 1 2 1 0 1 2 1 1 2 2 2 3 2 2 3 3 2 3 4 7 8 4 7
11 11 10 10 10 11 10 11 12 12 11 6 3 1 0 3 0 1 1 2 1 1 2 1 1 1 1 2 3 4 4 3 3 1 2 2 1 2 2 2 5 6 8 10 11 5 9
12 11 10 10 11 11 11 11 10 10 9 4 3 2 1 1 1 2 2 2 3 3 2 2 1 2 0 0 1 2 1 1 1 4 3 2 4 2 3 3 5 8 8 12 6 5 8
13 11 11 11 11 12 11 11 9 9 7 4 3 3 1 2 1 3 3 4 4 4 2 3 4 3 2 1 1 1 2 2 2 1 3 4 3 2 2 3 2 4 0 3 8 3 8
13 12 12 12 11 12 11 10 10 8 7 5 3 2 2 3 4 3 4 3 2 3 3 4 5 3 4 2 2 2 3 2 1 4 1 1 3 1 2 3 6 5 1 3 5 4 4
15 14 14 13 12 13 12 11 10 10 8 7 6 4 3 2 5 3 3 5 3 2 3 3 3 4 3 3 2 4 5 4 3 1 4 4 3 3 3 3 5 3 1 1 1 5 2
19 16 15 14 13 13 13 12 11 11 10 8 8 7 5 4 5 7 4 4 4 3 2 2 3 4 6 2 2 4 4 3 4 6 5 3 1 5 4 3 7 4 2 1 3 4 7
22 20 16 15 15 13 14 13 12 11 11 10 10 10 8 5 7 8 8 7 5 5 4 4 2 2 2 3 3 3 3 3 1 3 5 7 6 4 3 3 7 2 2 3 1 4 9
25 24 19 18 18 15 15 14 13 12 11 11 12 12 11 10 7 7 12 12 12 8 4 8 2 3 6 3 1 1 2 1 3 3 1 2 5 4 8 5 1 2 2 4 3 4 9
Wind_Direction
27 26 24 14 13 5 357 7 2 7 26 30 32 35 32 42 46 25 1 316 336 203 195 187 188 185 168 192 249 13 195 198 191 189 191 181 173 163 177 179 150 216 187 122 122 86 145
26 30 28 26 27 7 354 355 342 345 341 358 6 16 9 19 31 24 20 84 117 121 195 183 187 181 173 202 226 168 144 181 190 187 187 180 184 199 211 191 166 179 144 106 91 88 44
25 29 29 27 22 11 357 345 327 330 324 328 342 349 352 1 0 10 35 44 129 71 128 151 168 176 184 204 225 233 229 199 195 193 184 181 150 192 178 149 148 133 91 36 71 126 90
27 25 29 30 25 15 359 339 331 316 316 312 324 342 350 347 335 344 24 37 56 51 69 137 152 184 219 204 222 266 211 178 189 182 173 185 222 267 231 137 78 83 59 123 165 151 91
31 26 25 26 23 16 9 348 322 316 313 307 298 311 326 336 333 340 359 12 341 36 75 44 85 182 245 192 235 229 193 179 165 155 155 174 197 240 138 103 57 17 161 199 305 195 120
30 30 27 23 24 14 11 359 320 304 308 308 333 296 279 295 305 327 347 3 23 22 335 94 262 287 170 189 156 160 155 153 145 149 138 154 190 84 42 82 181 159 127 208 230 194 143
27 24 25 22 20 17 12 10 336 295 292 298 330 342 273 272 287 308 336 350 23 59 203 238 285 249 134 144 140 134 159 157 146 150 118 113 79 153 168 114 138 118 119 161 254 341 167
25 20 19 17 13 14 11 10 1 300 289 282 282 318 340 284 281 295 312 0 334 125 8 40 85 91 121 138 118 82 149 142 130 105 104 43 106 220 95 116 99 95 127 216 340 106 143
25 19 18 15 12 10 9 8 11 305 289 315 281 253 261 317 306 292 307 291 331 321 211 192 230 353 109 138 112 126 171 141 114 84 78 125 157 298 108 64 102 64 165 188 176 92 45
24 20 16 14 10 9 9 7 12 27 314 343 353 229 228 235 254 236 272 290 288 314 71 348 300 66 85 137 63 163 178 162 48 141 111 89 323 129 97 87 106 153 216 193 123 101 215
17 17 14 12 12 9 10 8 10 28 89 57 44 1 216 226 223 233 276 297 297 193 57 316 334 60 66 125 137 63 145 132 111 102 91 245 32 77 76 84 334 137 71 68 73 94 72
14 10 12 8 10 11 12 11 11 25 170 76 15 12 200 236 242 251 273 278 126 46 314 333 328 355 72 44 63 112 116 94 109 77 37 65 42 50 113 80 74 141 76 46 56 71 18
8 10 11 8 9 9 13 13 12 22 24 263 337 2 3 245 228 218 205 127 35 82 307 319 342 5 82 18 49 69 39 31 102 89 12 13 353 341 46 81 33 72 65 9 0 4 220
357 7 10 7 7 12 11 12 16 12 19 45 66 8 13 46 174 146 154 60 65 242 286 321 320 340 92 21 36 41 75 65 53 87 109 140 326 19 350 50 168 74 133 148 199 195 268
358 360 5 5 6 8 11 12 11 15 13 29 109 47 46 37 95 170 220 54 179 220 300 354 319 57 1 30 115 80 51 168 227 101 131 139 21 320 48 10 72 182 103 144 105 16 38
353 357 0 2 2 3 4 9 13 9 7 9 102 126 25 8 347 323 73 140 188 207 265 177 29 21 173 200 126 94 187 112 319 148 155 204 95 25 329 85 30 73 155 69 3 182 260
349 349 355 360 3 2 358 0 8 10 7 4 358 151 12 3 29 47 84 191 206 199 184 144 116 17 31 27 60 62 185 22 20 320 358 140 96 282 40 202 177 116 118 61 118 143 180
334 344 347 352 360 5 3 358 360 5 8 4 30 36 358 13 38 52 88 335 348 354 355 323 132 121 120 49 57 94 180 230 346 306 85 23 120 145 191 302 329 198 197 155 131 217 212
318 330 343 348 348 356 4 4 0 359 3 2 30 36 13 15 86 39 295 103 80 17 14 11 350 347 334 144 127 171 198 201 342 111 165 167 26 62 357 0 356 223 200 140 108 72 202
297 311 321 336 344 346 353 2 0 1 359 1 353 28 37 48 77 110 137 154 6 63 53 3 322 17 44 38 17 175 171 262 10 62 52 59 134 168 186 195 135 194 197 180 150 139 187
294 301 305 314 329 338 342 349 358 359 359 357 19 70 91 332 356 96 68 320 150 165 264 260 82 94 143 248 32 151 139 21 32 19 72 103 191 94 275 259 218 239 200 187 205 195 185
287 292 298 305 313 323 331 338 344 354 359 2 7 42 68 132 201 335 352 164 280 292 166 164 183 254 204 205 219 230 164 209 204 72 106 1 176 106 306 27 209 253 224 215 224 217 258
283 285 286 294 302 310 319 326 334 341 356 352 14 6 305 329 87 101 230 209 204 160 219 250 194 122 144 245 59 4 320 30 306 158 164 123 135 110 257 352 320 286 222 200 194 197 192
273 273 273 282 291 299 306 313 320 325 335 347 335 317 268 268 237 214 199 201 219 223 221 212 191 159 184 147 278 239 242 255 214 207 139 130 97 61 296 8 274 260 114 170 204 225 218
268 272 273 281 285 289 292 297 303 307 308 308 296 267 268 266 213 274 228 221 219 237 244 232 222 206 179 153 80 20 342 360 52 39 227 83 115 133 207 210 293 291 134 150 170 281 189
269 271 274 276 281 279 283 284 285 289 290 286 275 254 224 251 247 203 185 203 194 220 319 233 205 192 189 97 110 198 219 216 230 193 49 85 88 144 147 206 239 260 176 96 140 289 147
260 267 269 274 272 275 273 273 276 277 278 276 269 253 225 250 246 203 197 195 184 167 191 265 192 183 185 128 169 186 237 178 197 185 173 136 140 206 201 253 286 269 204 36 96 271 162
256 261 263 267 267 263 267 270 273 278 277 270 265 259 243 237 265 235 230 214 203 200 162 160 94 225 74 173 172 218 201 231 223 168 178 168 154 196 142 195 276 166 112 171 241 135 175
253 256 259 263 265 259 260 266 272 276 280 276 265 259 251 243 256 247 243 234 227 231 229 197 222 172 199 103 230 102 222 205 175 246 45 226 196 182 189 212 232 213 230 304 210 211 192